{"data":{"norad_id":68131,"intl_designator":"2026-047C","name":"HULIANWANG DIGUI-157","alt_names":[],"object_type":"PAYLOAD","status":"ACTIVE","operator":null,"country":"PRC","launch_date":"2026-03-12","launch_site_code":"WSC","launch_vehicle":null,"mission":null,"orbit_class":"UNKNOWN","rcs_meters":null,"size_class":null,"mass_kg":null,"dimensions":null,"purposes":[],"wikipedia_slug":null,"has_3d_model":false,"image_url":null,"decayed_at":null,"tle_current":{"epoch":"2026-09-20T21:58:56.455680Z","epoch_age_seconds":42602,"freshness":"FRESH","line1":"1 68131U 26047C   26263.91593120 -.00000105  00000+0  40941-4 0  9995","line2":"2 68131  49.9996  72.8554 0001183  91.6578 268.4430 13.29325559 25803","mean_motion":13.29325559,"eccentricity":0.0001183,"inclination_deg":49.9996,"raan_deg":72.8554,"arg_perigee_deg":91.6578,"mean_anomaly_deg":268.443,"bstar":4.0941e-5,"rev_number":2580,"period_min":108.32560844488,"perigee_km":1148.4177398876,"apogee_km":1150.1987334306,"semimajor_km":7527.4452366591,"source":"CELESTRAK","updated_at":"2026-09-21T09:00:17.094320Z"}}}